1485835200.38,11238,9.75,73168.8,-7.25,-38.23,-35.89,0,*54
1485835201.61,11239,9.75,73170.5,-7.25,-38.23,-36.07,0,*50
1485835202.86,11240,9.75,73168.3,-7.27,-38.17,-35.89,0,*5E
1485835204.1,11241,9.75,73172.3,-7.27,-38.17,-35.77,0,*5E
1485835205.37,11242,9.75,73170.8,-7.27,-38.17,-35.95,0,*51
1485835206.63,11243,9.81,73174.0,-7.27,-37.99,-35.77,0,*55
1485835207.87,11244,9.75,73172.5,-7.27,-37.87,-35.71,0,*5B
1485835209.1,11245,9.81,73174.0,-7.29,-38.11,-35.77,0,*52
1485835210.34,11246,9.75,73172.5,-7.29,-38.11,-35.77,0,*51
1485835211.56,11247,9.81,73172.3,-7.29,-38.05,-35.65,0,*56
1485835212.78,11248,9.75,73172.3,-7.29,-37.87,-35.77,0,*5F
1485835214.0,11249,9.81,73172.5,-7.29,-38.05,-35.65,0,*58
1485835215.26,11250,9.81,73174.8,-7.29,-38.23,-35.83,0,*5C
1485835216.53,11251,9.81,73174.3,-7.27,-37.99,-35.77,0,*56
1485835217.76,11252,9.75,73168.3,-7.29,-37.93,-35.77,0,*51
1485835219.03,11253,9.75,73166.0,-7.31,-38.17,-35.83,0,*51
1485835220.31,11254,9.75,73164.0,-7.31,-38.11,-35.83,0,*50
1485835221.54,11255,9.81,73170.0,-7.29,-38.11,-35.77,0,*53
1485835222.8,11256,9.75,73166.5,-7.29,-38.11,-35.83,0,*5B
1485835224.09,11257,9.75,73168.8,-7.31,-38.29,-35.83,0,*58
1485835225.34,11258,9.75,73168.8,-7.29,-38.11,-35.83,0,*55
1485835226.6,11259,9.81,73174.3,-7.31,-38.11,-35.71,0,*50
1485835227.84,11260,9.81,73170.8,-7.33,-38.17,-35.83,0,*53
1485835229.1,11261,9.81,73168.3,-7.31,-38.17,-35.83,0,*50
1485835230.37,11262,9.75,73170.0,-7.31,-38.29,-35.89,0,*54
1485835231.66,11263,9.75,73168.3,-7.31,-38.29,-35.83,0,*5F
1485835232.95,11264,9.75,73168.8,-7.31,-38.11,-35.83,0,*53
1485835234.22,11265,9.75,73168.0,-7.35,-38.23,-35.89,0,*5D
1485835235.49,11266,9.81,73168.8,-7.35,-38.23,-35.89,0,*5E
1485835236.73,11267,9.75,73168.5,-7.35,-38.17,-35.77,0,*59
1485835237.96,11268,9.75,73170.5,-7.33,-38.11,-35.71,0,*50
1485835239.19,11269,9.75,73166.5,-7.33,-38.11,-35.71,0,*51
1485835240.44,11270,9.81,73170.0,-7.35,-38.17,-35.77,0,*5F
1485835241.69,11271,9.75,73166.5,-7.35,-38.17,-35.89,0,*5F
1485835242.92,11272,9.75,73166.0,-7.35,-38.05,-35.71,0,*58
1485835244.16,11273,9.75,73166.5,-7.35,-38.17,-35.71,0,*5A
1485835245.39,11274,9.81,73170.5,-7.35,-38.05,-35.59,0,*54
1485835246.68,11275,9.81,73170.0,-7.35,-37.99,-35.53,0,*55
1485835247.95,11276,9.81,73170.5,-7.35,-37.99,-35.59,0,*5C
1485835249.24,11277,9.81,73168.0,-7.35,-37.99,-35.53,0,*57
1485835250.47,11278,9.75,73170.5,-7.37,-38.05,-35.53,0,*50
1485835251.73,11279,9.75,73170.3,-7.37,-37.99,-35.53,0,*5B
1485835252.99,11280,9.81,73172.0,-7.37,-37.99,-35.53,0,*5D
1485835254.25,11281,9.81,73174.5,-7.37,-37.99,-35.53,0,*5C
1485835255.49,11282,9.81,73174.0,-7.37,-38.05,-35.53,0,*55
1485835256.78,11283,9.81,73174.5,-7.39,-37.99,-35.35,0,*50
1485835257.98,11284,9.81,73176.8,-7.37,-37.75,-35.17,0,*5B
1485835259.23,11285,9.75,73174.5,-7.37,-37.81,-35.29,0,*5C
1485835260.5,11286,9.81,73176.3,-7.39,-37.87,-35.53,0,*5A
1485835261.74,11287,9.81,73176.0,-7.39,-37.87,-35.29,0,*56
1485835262.99,11288,9.81,73178.3,-7.37,-37.81,-35.13,0,*58
1485835264.26,11289,9.75,73176.5,-7.39,-37.81,-35.13,0,*57
1485835265.53,11290,9.81,73176.3,-7.39,-37.81,-35.01,0,*5C
1485835266.77,11291,9.81,73176.0,-7.39,-37.75,-35.01,0,*56
1485835268.0,11292,9.75,73176.0,-7.39,-37.75,-35.13,0,*56
1485835269.24,11293,9.75,73176.8,-7.39,-37.75,-35.13,0,*57
1485835270.48,11294,9.81,73182.3,-7.37,-37.63,-35.01,0,*5A
1485835271.74,11295,9.81,73178.5,-7.39,-37.45,-34.65,0,*52
1485835273.0,11296,9.81,73178.3,-7.39,-37.39,-34.59,0,*55
1485835274.24,11297,9.81,73174.0,-7.39,-37.45,-34.77,0,*53
1485835275.47,11298,9.81,73174.0,-7.39,-37.45,-34.77,0,*5C
1485835276.68,11299,9.81,73174.0,-7.37,-37.57,-34.77,0,*50
1485835277.97,11300,9.75,73174.8,-7.39,-37.39,-34.65,0,*54
1485835279.18,11301,9.81,73174.0,-7.37,-37.27,-34.47,0,*54
1485835280.45,11302,9.81,73172.8,-7.39,-37.21,-34.47,0,*5F
1485835281.69,11303,9.81,73172.3,-7.37,-37.39,-34.77,0,*5A
1485835282.9,11304,9.81,73172.3,-7.37,-37.57,-34.77,0,*55
1485835284.15,11305,9.75,73170.3,-7.37,-37.63,-34.83,0,*58
1485835285.38,11306,9.75,73166.0,-7.37,-37.57,-34.83,0,*5C
1485835286.61,11307,9.81,73170.5,-7.37,-37.57,-34.83,0,*5D
1485835287.82,11308,9.81,73170.0,-7.37,-37.57,-34.77,0,*59
1485835289.03,11309,9.81,73174.3,-7.37,-37.45,-34.77,0,*5B
1485835290.29,11310,9.81,73172.3,-7.37,-37.63,-34.95,0,*5B
1485835291.55,11311,9.75,73176.5,-7.37,-37.63,-34.95,0,*5A
1485835292.79,11312,9.75,73176.0,-7.39,-37.45,-34.47,0,*5C
1485835294.04,11313,9.75,73176.0,-7.39,-37.09,-34.41,0,*53
1485835295.3,11314,9.81,73174.8,-7.37,-37.09,-34.31,0,*5D
1485835296.5,11315,9.75,73172.8,-7.37,-37.03,-34.25,0,*53
1485835297.76,11316,9.75,73168.3,-7.35,-36.91,-34.07,0,*58
1485835298.99,11317,9.81,73174.0,-7.37,-37.03,-34.19,0,*5E
1485835300.25,11318,9.75,73172.8,-7.35,-36.91,-34.25,0,*56
1485835301.51,11319,9.81,73178.5,-7.35,-37.21,-34.41,0,*5F
1485835302.74,11320,9.75,73178.0,-7.37,-37.39,-34.47,0,*58
1485835303.95,11321,9.81,73176.8,-7.37,-37.45,-34.47,0,*52
1485835305.16,11322,9.81,73178.0,-7.37,-37.45,-34.47,0,*51
1485835306.39,11323,9.75,73174.8,-7.37,-37.39,-34.59,0,*54
1485835307.66,11324,9.81,73176.5,-7.35,-37.45,-34.65,0,*55
1485835308.89,11325,9.75,73172.5,-7.35,-37.45,-34.59,0,*5B
1485835310.13,11326,9.81,73176.5,-7.37,-37.39,-34.47,0,*5E
1485835311.37,11327,9.81,73172.3,-7.37,-37.39,-34.47,0,*5F
1485835312.63,11328,9.75,73172.8,-7.35,-37.57,-34.65,0,*5A
1485835313.87,11329,9.75,73174.3,-7.37,-37.57,-34.65,0,*59
1485835315.1,11330,9.81,73174.0,-7.35,-37.57,-34.59,0,*5C
1485835316.34,11331,9.75,73174.0,-7.35,-37.57,-34.77,0,*51
1485835317.55,11332,9.75,73174.0,-7.37,-37.45,-34.47,0,*50
1485835318.76,11333,9.75,73174.8,-7.37,-37.57,-34.77,0,*51
1485835319.99,11334,9.81,73174.0,-7.39,-37.57,-34.77,0,*58
1485835321.23,11335,9.81,73174.5,-7.37,-37.63,-34.77,0,*50
1485835322.44,11336,9.75,73172.5,-7.37,-37.75,-34.77,0,*54
1485835323.7,11337,9.81,73174.3,-7.39,-37.63,-34.77,0,*5C
1485835324.96,11338,9.81,73176.3,-7.39,-37.63,-34.77,0,*53
1485835326.17,11339,9.81,73176.5,-7.37,-37.75,-34.77,0,*5B
1485835327.43,11340,9.75,73174.3,-7.39,-37.63,-34.77,0,*5C
1485835328.72,11341,9.81,73174.0,-7.39,-37.81,-34.83,0,*5A
1485835329.99,11342,9.81,73178.5,-7.43,-37.81,-34.89,0,*5E
1485835331.28,11343,9.75,73176.0,-7.43,-37.81,-34.83,0,*55
1485835332.54,11344,9.75,73174.5,-7.43,-37.69,-34.71,0,*59
1485835333.75,11345,9.81,73176.5,-7.45,-37.57,-34.59,0,*59
1485835335.03,11346,9.81,73178.8,-7.43,-37.69,-34.83,0,*56
1485835336.29,11347,9.81,73178.5,-7.43,-37.69,-34.71,0,*5A
1485835337.53,11348,9.81,73180.8,-7.45,-37.69,-34.71,0,*53
1485835338.79,11349,9.81,73182.8,-7.45,-37.51,-34.53,0,*59
1485835340.05,11350,9.81,73178.0,-7.43,-37.51,-34.47,0,*52
1485835341.31,11351,9.75,73178.5,-7.43,-37.45,-34.31,0,*57
1485835342.53,11352,9.81,73180.8,-7.43,-37.27,-34.25,0,*55
1485835343.77,11353,9.81,73180.5,-7.43,-37.15,-34.13,0,*50
1485835345.03,11354,9.75,73178.3,-7.43,-37.09,-34.13,0,*5A
1485835346.29,11355,9.81,73182.0,-7.43,-37.09,-34.07,0,*5E
1485835347.56,11356,9.75,73178.3,-7.43,-37.09,-34.13,0,*58
1485835348.79,11357,9.81,73182.8,-7.43,-37.15,-34.07,0,*51
1485835350.0,11358,9.81,73182.5,-7.45,-37.03,-33.95,0,*53
1485835351.28,11359,9.81,73180.5,-7.43,-36.91,-33.77,0,*52
1485835352.57,11360,9.75,73178.0,-7.43,-36.79,-33.73,0,*5A
1485835353.81,11361,9.81,73178.3,-7.39,-36.85,-33.83,0,*5A
1485835355.07,11362,9.75,73176.8,-7.43,-37.09,-33.95,0,*56
1485835356.35,11363,9.81,73182.3,-7.39,-36.91,-33.89,0,*57
1485835357.59,11364,9.75,73182.0,-7.39,-36.73,-33.67,0,*5C
1485835358.83,11365,9.81,73180.8,-7.39,-36.67,-33.67,0,*58
1485835360.1,11366,9.81,73178.5,-7.39,-36.85,-33.73,0,*52
1485835361.38,11367,9.75,73178.0,-7.39,-36.91,-33.73,0,*56
1485835362.64,11368,9.81,73178.3,-7.39,-36.91,-33.83,0,*56
1485835363.91,11369,9.81,73180.8,-7.39,-36.73,-33.73,0,*54
1485835365.15,11370,9.75,73178.0,-7.39,-36.67,-33.67,0,*5C
1485835366.39,11371,9.75,73178.0,-7.39,-36.67,-33.67,0,*5D
1485835367.63,11372,9.75,73172.3,-7.39,-36.55,-33.67,0,*5F
1485835368.86,11373,9.75,73172.8,-7.39,-36.55,-33.55,0,*5F
1485835370.1,11374,9.81,73178.5,-7.37,-36.55,-33.31,0,*54
1485835371.31,11375,9.81,73176.0,-7.37,-36.43,-33.37,0,*54
1485835372.57,11376,9.75,73172.0,-7.37,-36.49,-33.49,0,*54
1485835373.78,11377,9.75,73172.8,-7.37,-36.55,-33.55,0,*55
1485835375.02,11378,9.81,73178.0,-7.37,-37.03,-33.89,0,*59
1485835376.25,11379,9.81,73172.3,-7.39,-37.03,-33.83,0,*5C
1485835377.48,11380,9.81,73174.8,-7.37,-36.91,-33.83,0,*5E
1485835378.72,11381,9.81,73172.8,-7.37,-36.85,-33.73,0,*55
1485835379.96,11382,9.81,73172.3,-7.39,-36.85,-33.67,0,*5D
1485835381.2,11383,9.75,73170.5,-7.37,-36.85,-33.73,0,*57
1485835382.41,11384,9.81,73172.3,-7.37,-36.73,-33.67,0,*5C
1485835383.65,11385,9.75,73170.8,-7.39,-36.73,-33.67,0,*53
1485835384.87,11386,9.75,73174.3,-7.37,-36.85,-33.67,0,*57
1485835386.08,11387,9.81,73174.8,-7.37,-36.73,-33.67,0,*5F
1485835387.29,11388,9.75,73174.3,-7.37,-37.03,-33.83,0,*5C
1485835388.53,11389,9.81,73180.3,-7.39,-36.73,-33.55,0,*5E
1485835389.74,11390,9.81,73176.8,-7.37,-36.85,-33.67,0,*50
1485835390.98,11391,9.81,73176.5,-7.37,-36.73,-33.49,0,*54
1485835392.19,11392,9.75,73172.8,-7.37,-36.85,-33.55,0,*53
1485835393.4,11393,9.81,73178.3,-7.37,-36.85,-33.55,0,*52
1485835394.64,11394,9.81,73174.0,-7.37,-36.91,-33.67,0,*51
1485835395.93,11395,9.75,73174.5,-7.35,-37.21,-34.01,0,*5F
1485835397.19,11396,9.81,73174.8,-7.37,-37.09,-33.89,0,*53
1485835398.45,11397,9.81,73178.3,-7.39,-37.09,-33.83,0,*56
1485835399.71,11398,9.75,73172.8,-7.39,-37.09,-33.83,0,*59
1485835400.94,11399,9.81,73176.0,-7.37,-37.09,-33.83,0,*56
1485835402.18,11400,9.81,73178.0,-7.37,-37.03,-33.73,0,*54
1485835403.41,11401,9.81,73176.8,-7.37,-37.03,-33.73,0,*55
1485835404.68,11402,9.81,73178.5,-7.39,-37.21,-33.83,0,*57
1485835405.91,11403,9.81,73178.0,-7.37,-37.27,-33.89,0,*54
1485835407.2,11404,9.75,73178.0,-7.39,-37.21,-33.89,0,*5B
1485835408.47,11405,9.81,73178.5,-7.39,-37.21,-33.83,0,*50
1485835409.76,11406,9.81,73178.8,-7.39,-37.21,-33.89,0,*59
1485835410.99,11407,9.81,73178.0,-7.39,-37.27,-33.83,0,*54
1485835412.25,11408,9.81,73176.3,-7.39,-37.21,-33.83,0,*5D
1485835413.54,11409,9.75,73176.3,-7.39,-37.09,-33.73,0,*59
1485835414.8,11410,9.81,73178.3,-7.39,-37.27,-33.89,0,*58
1485835416.03,11411,9.81,73178.5,-7.43,-37.33,-33.95,0,*5C
1485835417.29,11412,9.81,73178.8,-7.43,-37.27,-33.89,0,*57
1485835418.55,11413,9.81,73180.3,-7.43,-37.27,-33.89,0,*56
1485835419.84,11414,9.75,73176.5,-7.43,-37.09,-33.77,0,*5C
1485835421.1,11415,9.75,73178.5,-7.43,-37.15,-33.89,0,*51
1485835422.34,11416,9.81,73180.8,-7.45,-37.21,-33.95,0,*5E
1485835423.6,11417,9.75,73178.5,-7.43,-37.15,-33.77,0,*52
1485835424.84,11418,9.81,73182.5,-7.45,-37.15,-33.77,0,*5B
1485835426.07,11419,9.75,73178.0,-7.45,-37.03,-33.77,0,*5D
1485835427.3,11420,9.81,73182.5,-7.45,-37.03,-33.77,0,*57
1485835428.57,11421,9.81,73182.3,-7.43,-36.79,-33.37,0,*58
1485835429.83,11422,9.75,73180.5,-7.45,-36.79,-33.43,0,*5E
1485835431.07,11423,9.81,73182.5,-7.45,-36.67,-33.43,0,*50
1485835432.3,11424,9.81,73180.8,-7.45,-36.49,-33.21,0,*5F
1485835433.55,11425,9.75,73178.3,-7.45,-36.55,-33.27,0,*55
1485835434.79,11426,9.81,73176.8,-7.45,-36.67,-33.27,0,*57
1485835436.03,11427,9.81,73178.5,-7.43,-36.55,-33.03,0,*57
1485835437.24,11428,9.81,73178.8,-7.45,-36.55,-33.15,0,*59
1485835438.52,11429,9.81,73178.0,-7.43,-36.37,-32.97,0,*51
1485835439.78,11430,9.81,73176.5,-7.43,-36.31,-32.97,0,*5F
1485835441.06,11431,9.75,73174.0,-7.43,-36.37,-32.97,0,*58
1485835442.33,11432,9.81,73172.8,-7.39,-36.49,-33.03,0,*53
1485835443.59,11433,9.81,73174.5,-7.43,-36.55,-33.27,0,*54
1485835444.86,11434,9.81,73174.3,-7.39,-36.49,-33.21,0,*55
1485835446.12,11435,9.81,73172.3,-7.39,-36.55,-33.31,0,*58
1485835447.38,11436,9.81,73174.5,-7.45,-36.79,-33.49,0,*51
1485835448.62,11437,9.81,73174.3,-7.43,-36.73,-33.37,0,*55
1485835449.86,11438,9.75,73170.8,-7.43,-36.73,-33.37,0,*5A
1485835451.1,11439,9.81,73172.3,-7.45,-36.97,-33.61,0,*54
1485835452.35,11440,9.81,73174.3,-7.45,-36.91,-33.61,0,*5C
1485835453.61,11441,9.81,73172.0,-7.45,-36.79,-33.49,0,*51
1485835454.85,11442,9.81,73176.8,-7.45,-36.97,-33.49,0,*52
1485835456.06,11443,9.75,73174.5,-7.45,-37.03,-33.67,0,*53
1485835457.34,11444,9.75,73174.5,-7.43,-36.91,-33.61,0,*5E
1485835458.58,11445,9.81,73178.0,-7.45,-36.97,-33.43,0,*5F
1485835459.82,11446,9.81,73178.5,-7.45,-36.85,-33.49,0,*55
1485835461.08,11447,9.75,73178.0,-7.45,-36.79,-33.31,0,*58
1485835462.32,11448,9.81,73178.8,-7.45,-36.91,-33.37,0,*57
1485835463.56,11449,9.75,73176.8,-7.45,-36.97,-33.43,0,*53
1485835464.82,11450,9.81,73178.0,-7.45,-36.79,-33.43,0,*5B
1485835466.06,11451,9.81,73176.5,-7.45,-36.67,-33.31,0,*50
1485835467.3,11452,9.81,73178.5,-7.45,-36.67,-33.31,0,*53
1485835468.57,11453,9.81,73178.0,-7.47,-36.85,-33.49,0,*53
1485835469.81,11454,9.75,73176.0,-7.49,-36.85,-33.49,0,*5A
1485835471.07,11455,9.75,73172.3,-7.47,-36.97,-33.61,0,*5C
1485835472.31,11456,9.75,73174.3,-7.49,-36.85,-33.49,0,*58
1485835473.55,11457,9.81,73174.8,-7.49,-36.85,-33.49,0,*59
1485835474.82,11458,9.81,73174.3,-7.47,-36.67,-33.43,0,*5E
1485835476.09,11459,9.81,73176.0,-7.47,-36.67,-33.27,0,*5D
1485835477.38,11460,9.81,73176.3,-7.47,-36.79,-33.43,0,*5A
1485835478.65,11461,9.75,73174.5,-7.49,-36.91,-33.49,0,*59
1485835479.86,11462,9.75,73174.0,-7.49,-36.85,-33.55,0,*52
1485835481.1,11463,9.81,73174.5,-7.49,-36.73,-33.31,0,*58
1485835482.32,11464,9.81,73172.5,-7.49,-36.73,-33.37,0,*59
1485835483.57,11465,9.81,73174.8,-7.49,-36.73,-33.31,0,*5E
1485835484.81,11466,9.81,73176.5,-7.49,-36.73,-33.31,0,*5D
1485835486.05,11467,9.81,73178.0,-7.49,-36.73,-33.31,0,*5C
1485835487.27,11468,9.81,73176.8,-7.49,-36.73,-33.37,0,*55
1485835488.52,11469,9.81,73176.3,-7.51,-36.85,-33.37,0,*54
1485835489.76,11470,9.75,73176.8,-7.51,-36.73,-33.37,0,*55
1485835491.01,11471,9.81,73178.3,-7.51,-36.73,-33.37,0,*54
1485835492.28,11472,9.81,73176.3,-7.51,-36.73,-33.31,0,*51
1485835493.52,11473,9.81,73178.8,-7.51,-36.67,-33.15,0,*53
1485835494.73,11474,9.81,73180.0,-7.53,-36.73,-33.21,0,*54
1485835495.97,11475,9.81,73178.8,-7.53,-36.79,-33.37,0,*58
1485835497.24,11476,9.75,73174.3,-7.53,-36.91,-33.43,0,*5E
1485835498.48,11477,9.81,73178.0,-7.51,-36.73,-33.37,0,*52
1485835499.72,11478,9.81,73176.0,-7.53,-36.79,-33.37,0,*55
1485835500.98,11479,9.81,73176.3,-7.53,-36.79,-33.43,0,*57
1485835502.22,11480,9.81,73176.0,-7.53,-36.73,-33.27,0,*59
1485835503.44,11481,9.81,73178.3,-7.53,-36.67,-33.21,0,*5B
1485835504.65,11482,9.81,73178.3,-7.53,-36.67,-33.15,0,*5F
1485835505.89,11483,9.81,73178.8,-7.53,-36.73,-33.27,0,*5A
1485835507.1,11484,9.81,73176.5,-7.53,-36.67,-33.21,0,*5E
1485835508.31,11485,9.75,73174.3,-7.53,-36.67,-33.15,0,*58
1485835509.52,11486,9.81,73178.5,-7.53,-36.55,-33.15,0,*5A
1485835510.76,11487,9.81,73178.5,-7.53,-36.49,-33.03,0,*51
1485835511.97,11488,9.81,73178.8,-7.53,-36.55,-33.15,0,*54
1485835513.21,11489,9.81,73178.5,-7.53,-36.73,-33.27,0,*50
1485835514.45,11490,9.81,73176.5,-7.55,-36.67,-33.21,0,*5D
1485835515.72,11491,9.75,73176.0,-7.55,-36.67,-33.27,0,*5A
1485835516.96,11492,9.81,73178.5,-7.55,-36.73,-33.21,0,*5A
1485835518.25,11493,9.81,73178.3,-7.55,-36.37,-32.85,0,*54
1485835519.54,11494,9.81,73180.8,-7.55,-36.37,-32.85,0,*53
1485835520.78,11495,9.81,73178.8,-7.55,-36.55,-33.15,0,*5E
1485835522.06,11496,9.81,73178.8,-7.55,-36.49,-32.97,0,*5B
1485835523.3,11497,9.81,73178.3,-7.53,-36.49,-33.03,0,*50
1485835524.53,11498,9.81,73178.5,-7.55,-36.55,-33.15,0,*53
1485835525.82,11499,9.81,73176.5,-7.55,-36.49,-32.97,0,*54
1485835527.08,11500,9.81,73174.8,-7.57,-36.61,-33.03,0,*51
1485835528.37,11501,9.81,73178.0,-7.55,-36.37,-32.85,0,*5E
1485835529.6,11502,9.81,73176.0,-7.57,-36.43,-33.03,0,*53
1485835530.84,11503,9.81,73176.5,-7.55,-36.55,-33.03,0,*57
1485835532.11,11504,9.81,73176.3,-7.55,-36.31,-32.85,0,*5D
1485835533.37,11505,9.81,73176.5,-7.57,-36.19,-32.75,0,*5B
1485835534.63,11506,9.81,73176.8,-7.57,-36.19,-32.75,0,*58
1485835535.89,11507,9.81,73178.5,-7.55,-36.13,-32.69,0,*5C
1485835537.13,11508,9.81,73182.3,-7.55,-36.01,-32.69,0,*50
1485835538.42,11509,9.81,73178.5,-7.55,-36.13,-32.79,0,*53
1485835539.71,11510,9.81,73178.5,-7.55,-35.83,-32.45,0,*5E
1485835541.0,11511,9.81,73178.0,-7.55,-35.83,-32.45,0,*5F
1485835542.28,11512,9.75,73176.0,-7.55,-35.83,-32.45,0,*5C
1485835543.52,11513,9.81,73182.3,-7.55,-35.77,-32.35,0,*51
1485835544.74,11514,9.81,73176.5,-7.53,-35.77,-32.35,0,*50
1485835546.0,11515,9.81,73180.0,-7.53,-35.83,-32.45,0,*5D
1485835547.27,11516,9.75,73176.3,-7.55,-35.95,-32.69,0,*51
1485835548.53,11517,9.81,73178.5,-7.55,-36.13,-32.69,0,*5D
1485835549.81,11518,9.75,73178.8,-7.55,-36.13,-32.79,0,*53
1485835551.1,11519,9.75,73176.3,-7.55,-36.13,-32.63,0,*59
1485835552.34,11520,9.81,73180.5,-7.53,-35.77,-32.45,0,*50
1485835553.6,11521,9.81,73178.8,-7.55,-35.83,-32.35,0,*5B
1485835554.86,11522,9.81,73182.0,-7.53,-35.83,-32.45,0,*59
1485835556.07,11523,9.81,73180.5,-7.53,-35.77,-32.35,0,*54
1485835557.3,11524,9.81,73182.8,-7.57,-35.59,-32.13,0,*5F
1485835558.53,11525,9.81,73180.8,-7.53,-35.59,-32.19,0,*50
1485835559.81,11526,9.81,73180.5,-7.51,-35.53,-32.29,0,*58
1485835561.02,11527,9.81,73178.5,-7.53,-35.77,-32.35,0,*50
1485835562.26,11528,9.81,73178.8,-7.55,-35.77,-32.35,0,*59
1485835563.47,11529,9.81,73180.0,-7.53,-35.59,-32.13,0,*56
1485835564.72,11530,9.81,73180.5,-7.53,-35.53,-32.07,0,*51
1485835565.99,11531,9.81,73180.5,-7.51,-35.47,-32.07,0,*57
1485835567.26,11532,9.81,73182.8,-7.51,-35.47,-32.07,0,*54
1485835568.48,11533,9.81,73178.0,-7.53,-35.53,-32.23,0,*54
1485835569.72,11534,9.81,73180.5,-7.53,-35.59,-32.19,0,*50
1485835570.98,11535,9.81,73180.5,-7.51,-35.47,-32.07,0,*53
1485835572.24,11536,9.81,73174.8,-7.51,-35.53,-32.13,0,*50
1485835573.47,11537,9.81,73180.8,-7.51,-35.47,-32.13,0,*54
1485835574.71,11538,9.81,73182.8,-7.49,-35.17,-31.73,0,*52
1485835575.97,11539,9.75,73180.0,-7.51,-34.83,-31.67,0,*53
1485835577.23,11540,9.81,73182.0,-7.51,-35.17,-31.73,0,*54
1485835578.49,11541,9.81,73182.0,-7.51,-35.17,-31.73,0,*55
1485835579.75,11542,9.81,73178.5,-7.51,-35.13,-31.85,0,*5B
1485835580.98,11543,9.81,73178.5,-7.49,-35.13,-31.73,0,*5A
1485835582.22,11544,9.81,73178.5,-7.49,-35.13,-31.73,0,*5D
1485835583.51,11545,9.75,73178.3,-7.47,-34.95,-31.61,0,*5E
1485835584.8,11546,9.81,73180.3,-7.47,-35.07,-31.73,0,*54
1485835586.09,11547,9.81,73180.3,-7.47,-35.23,-31.85,0,*5A
1485835587.33,11548,9.81,73178.5,-7.49,-35.29,-31.85,0,*51
1485835588.62,11549,9.81,73180.3,-7.47,-35.23,-31.85,0,*54
1485835589.91,11550,9.81,73180.8,-7.47,-35.23,-31.95,0,*5D
1485835591.15,11551,9.81,73180.0,-7.49,-35.47,-32.07,0,*58
1485835592.39,11552,9.81,73178.8,-7.49,-35.29,-31.95,0,*5B
1485835593.66,11553,9.81,73182.0,-7.47,-35.29,-31.95,0,*54
1485835594.93,11554,9.81,73182.3,-7.47,-35.07,-31.79,0,*5D
1485835596.13,11555,9.75,73176.0,-7.45,-35.13,-31.79,0,*5B
1485835597.37,11556,9.81,73180.3,-7.45,-34.95,-31.67,0,*58
1485835598.64,11557,9.81,73180.5,-7.45,-34.95,-31.61,0,*5F
1485835599.87,11558,9.81,73178.0,-7.45,-35.07,-31.79,0,*53
1485835601.11,11559,9.81,73182.8,-7.45,-34.89,-31.61,0,*5C
1485835602.31,11560,9.81,73176.5,-7.45,-34.89,-31.67,0,*50
1485835603.52,11561,9.81,73180.3,-7.45,-34.89,-31.67,0,*51
1485835604.73,11562,9.81,73182.0,-7.45,-34.89,-31.67,0,*52
1485835605.98,11563,9.81,73186.8,-7.43,-34.89,-31.73,0,*50
1485835607.24,11564,9.81,73186.3,-7.43,-35.17,-31.95,0,*59
1485835608.5,11565,9.81,73180.5,-7.43,-35.35,-32.01,0,*56
1485835609.74,11566,9.81,73180.3,-7.45,-35.29,-32.07,0,*58
1485835610.95,11567,9.81,73182.8,-7.45,-35.29,-32.01,0,*5F
1485835612.21,11568,9.81,73184.8,-7.43,-35.01,-31.73,0,*5A
1485835613.48,11569,9.81,73182.8,-7.43,-35.07,-31.79,0,*57
1485835614.72,11570,9.81,73180.3,-7.45,-34.95,-31.79,0,*53
1485835615.97,11571,9.81,73182.8,-7.43,-34.89,-31.73,0,*53
1485835617.24,11572,9.81,73182.3,-7.43,-35.17,-31.95,0,*5E
1485835618.5,11573,9.75,73176.0,-7.45,-35.07,-31.85,0,*59
1485835619.73,11574,9.81,73180.0,-7.43,-34.89,-31.79,0,*5C
1485835620.99,11575,9.81,73182.8,-7.43,-34.89,-31.73,0,*57
1485835622.25,11576,9.81,73182.3,-7.43,-34.89,-31.73,0,*54
1485835623.49,11577,9.81,73176.8,-7.43,-35.01,-31.79,0,*5E
1485835624.73,11578,9.81,73180.3,-7.45,-34.95,-31.79,0,*5B
1485835625.96,11579,9.81,73178.8,-7.43,-34.89,-31.79,0,*51
1485835627.22,11580,9.81,73176.0,-7.43,-35.17,-31.95,0,*53
1485835628.48,11581,9.81,73176.0,-7.43,-35.23,-32.01,0,*5B
1485835629.74,11582,9.81,73178.5,-7.43,-35.17,-31.95,0,*51
1485835631.04,11583,9.81,73178.3,-7.43,-35.07,-31.95,0,*51
1485835632.3,11584,9.81,73176.5,-7.43,-35.23,-32.01,0,*5E
1485835633.56,11585,9.81,73178.8,-7.43,-34.89,-31.73,0,*58
1485835634.84,11586,9.81,73176.0,-7.43,-34.83,-31.73,0,*51
1485835636.11,11587,9.81,73178.3,-7.43,-34.71,-31.73,0,*5D
1485835637.35,11588,9.81,73180.8,-7.43,-35.01,-31.79,0,*5E
1485835638.62,11589,9.81,73178.8,-7.43,-35.01,-31.95,0,*5D
1485835639.88,11590,9.81,73182.0,-7.43,-35.23,-32.01,0,*5B
1485835641.18,11591,9.81,73182.8,-7.43,-35.07,-31.95,0,*52
1485835642.47,11592,9.81,73176.3,-7.43,-35.07,-31.95,0,*51
1485835643.73,11593,9.81,73176.5,-7.45,-35.23,-31.95,0,*50
1485835645.0,11594,9.81,73176.8,-7.43,-35.01,-31.95,0,*51
1485835646.3,11595,9.81,73178.3,-7.43,-35.07,-31.95,0,*56
1485835647.56,11596,9.81,73180.3,-7.43,-35.23,-32.13,0,*5E
1485835648.84,11597,9.81,73176.3,-7.43,-35.35,-32.29,0,*51
1485835650.1,11598,9.81,73176.8,-7.43,-35.23,-32.13,0,*50
1485835651.36,11599,9.81,73178.3,-7.43,-34.89,-31.95,0,*5D
1485835652.6,11600,9.81,73176.8,-7.45,-35.07,-32.01,0,*51
1485835653.86,11601,9.81,73178.5,-7.45,-35.07,-31.95,0,*5E
1485835655.1,11602,9.81,73178.0,-7.45,-35.07,-32.01,0,*53
1485835656.37,11603,9.81,73176.3,-7.43,-35.01,-31.95,0,*5C
1485835657.64,11604,9.81,73174.3,-7.43,-34.89,-31.95,0,*5A
1485835658.91,11605,9.81,73176.3,-7.45,-34.95,-31.95,0,*50
1485835660.17,11606,9.81,73178.5,-7.45,-34.95,-31.95,0,*53
1485835661.44,11607,9.81,73176.8,-7.43,-34.83,-31.79,0,*51
1485835662.7,11608,9.81,73178.3,-7.45,-34.95,-31.85,0,*5C
1485835663.93,11609,9.81,73172.5,-7.45,-34.89,-31.85,0,*50
1485835665.17,11610,9.81,73172.0,-7.43,-34.89,-31.79,0,*5D
1485835666.43,11611,9.81,73172.5,-7.43,-34.71,-31.73,0,*51
1485835667.7,11612,9.81,73172.3,-7.43,-35.07,-32.01,0,*54
1485835668.94,11613,9.81,73176.8,-7.45,-35.13,-32.07,0,*50
1485835670.17,11614,9.81,73176.3,-7.45,-35.07,-32.01,0,*54
1485835671.44,11615,9.81,73180.8,-7.45,-35.07,-32.07,0,*53
1485835672.68,11616,9.81,73176.5,-7.45,-34.95,-32.01,0,*5C
1485835673.91,11617,9.81,73178.5,-7.45,-34.89,-31.85,0,*5F
1485835675.15,11618,9.81,73176.5,-7.45,-34.89,-31.95,0,*51
1485835676.38,11619,9.81,73176.3,-7.45,-34.95,-32.01,0,*53
1485835677.62,11620,9.81,73176.8,-7.45,-34.89,-31.95,0,*5A
1485835678.87,11621,9.81,73180.8,-7.45,-34.77,-31.95,0,*5A
1485835680.11,11622,9.75,73176.3,-7.45,-34.71,-31.85,0,*5E
1485835681.37,11623,9.81,73180.5,-7.43,-34.83,-32.01,0,*5B
1485835682.61,11624,9.81,73180.5,-7.45,-34.95,-32.01,0,*5D
1485835683.87,11625,9.81,73180.3,-7.43,-35.17,-32.19,0,*58
1485835685.11,11626,9.81,73178.3,-7.45,-34.89,-31.95,0,*5C
1485835686.35,11627,9.81,73176.8,-7.45,-34.77,-31.85,0,*5D
1485835687.59,11628,9.81,73178.5,-7.45,-34.77,-31.85,0,*52
1485835688.83,11629,9.81,73180.0,-7.45,-34.77,-31.95,0,*52
1485835690.04,11630,9.81,73182.3,-7.45,-34.89,-32.01,0,*55
1485835691.27,11631,9.81,73178.8,-7.45,-34.89,-32.07,0,*52
1485835692.52,11632,9.81,73178.5,-7.45,-34.77,-31.95,0,*58
1485835693.79,11633,9.81,73182.8,-7.49,-34.95,-32.07,0,*51
1485835695.01,11634,9.81,73178.5,-7.49,-35.01,-32.23,0,*5C
1485835696.3,11635,9.81,73182.3,-7.47,-35.07,-32.19,0,*5C
1485835697.57,11636,9.81,73178.3,-7.49,-34.95,-32.07,0,*54
1485835698.84,11637,9.81,73176.8,-7.47,-34.95,-32.01,0,*5D
1485835700.14,11638,9.81,73176.0,-7.47,-34.95,-32.19,0,*5B
1485835701.41,11639,9.81,73180.3,-7.47,-34.77,-31.95,0,*51
1485835702.65,11640,9.81,73178.0,-7.49,-34.83,-32.13,0,*57
1485835703.9,11641,9.81,73178.5,-7.47,-34.77,-32.01,0,*50
1485835705.17,11642,9.81,73180.8,-7.49,-34.95,-32.07,0,*57
1485835706.41,11643,9.81,73176.8,-7.49,-34.95,-32.23,0,*50
1485835707.68,11644,9.81,73182.0,-7.49,-34.83,-32.07,0,*56